Regional Weather Roundup
Issued by NWS

Home | Current Version | Previous Version | Graphics & Text | Print | Product List | Glossary On
Versions: 1 2 3 4 5 6 7 8 9 10 11 12 13 14 15 16 17 18 19 20 21 22 23 24 25 26 27 28 29 30 31 32 33 34 35 36 37 38 39 40 41 42 43 44 45 46 47 48 49 50
000
ASUS45 KCYS 232010
RWRWY

WYOMING REGIONAL WEATHER ROUNDUP
NATIONAL WEATHER SERVICE CHEYENNE WY
100 PM MST SUN NOV 23 2014

NOTE:  "FAIR" INDICATES FEW OR NO CLOUDS BELOW 12,000 FEET
WITH NO SIGNIFICANT WEATHER AND/OR OBSTRUCTIONS TO VISIBILITY.

WYZ001-232100-
YELLOWSTONE NATIONAL PARK

CITY           SKY/WX    TMP DP  RH WIND       PRES   REMARKS
LK YELLOWSTONE   N/A     23  12  62 MISG      29.98F
W YELLOWSTONE  NOT AVBL

$$
WYZ002>013-054>058-071-098>099-232100-
NORTHERN WYOMING

CITY           SKY/WX    TMP DP  RH WIND       PRES   REMARKS
JACKSON        PTSUNNY   27  12  54 W14G32    30.03R WCI  15
CODY           CLOUDY    37  10  32 W17G26    29.89F WCI  28
GREYBULL       PTSUNNY   40  20  44 NW25      29.91S WCI  29
WORLAND        CLOUDY    33  25  72 SW3       29.92S
SHERIDAN       CLOUDY    38  19  46 NW25G36   29.86S WCI  27
BUFFALO        CLOUDY    35  16  45 NW30G39   29.82F WCI  22
GILLETTE       NOT AVBL
HULETT           N/A    N/A N/A N/A MISG        N/A
NEWCASTLE      FAIR      34  19  55 NW22G35   29.78S WCI  22

$$
WYZ014>020-022>026-101>103-232100-
CENTRAL WYOMING

CITY           SKY/WX    TMP DP  RH WIND       PRES   REMARKS
BIG PINEY      MOSUNNY   41  11  29 NW22G32   30.01S
PINEDALE       PTCLDY    27  14  59 W25       29.99S WCI  11
DUBOIS         FAIR      27  10  50 NW21G33   29.93R WCI  13
LANDER         NOT AVBL
RIVERTON       PTSUNNY   34  15  46 NW23G37   29.89F WCI  22
CASPER         MOSUNNY   32  14  47 NW24G31   29.86S WCI  19
DOUGLAS        PTSUNNY  N/A N/A N/A NW16      29.83F

$$
WYZ021-027>030-104>119-232100-
SOUTHERN WYOMING

CITY           SKY/WX    TMP DP  RH WIND       PRES   REMARKS
EVANSTON       PTSUNNY   27  16  63 W16       30.09F WCI  15
KEMMERER       PTCLDY    28  18  64 W21G31    30.04F WCI  15
FORT BRIDGER   MOCLDY    31  19  62 W20G30    30.09R WCI  18
ROCK SPRINGS   PTSUNNY   28  12  51 NW17G30   29.98S WCI  16
DIXON          MOCLDY    30  19  64 NW21G26   29.96S WCI  17
RAWLINS        MOSUNNY   29  15  56 NW21      29.88F WCI  16
SARATOGA       CLOUDY    28  19  69 NW17      29.89R WCI  16
LARAMIE        PTSUNNY   26  17  68 NW24G35   29.79S WCI  11
CHEYENNE       MOSUNNY   35  12  38 NW23G35   29.77R WCI  23
TORRINGTON     PTSUNNY   42  12  29 NW30G39   29.78F
PINE BLUFFS    FAIR      37  14  38 NW29G36   29.76F WCI  25

$$



USA.gov is the U.S. government's official web portal to all federal, state and local government web resources and services.